CZ-6 R/B, 44784

Orbit data source: Space-Track

CZ-6 R/B, 44784 is space debris in LEO originally from a launch on Wed, 13 Nov 2019 UTC launched from the Taiyaun Space Center, China (TSC). Debris objects in space refer to the collection of defunct objects orbiting the Earth. Examples of debris include non-operational satellites, rocket bodies, and fragments generated from explosions, collisions, or faulty payload assembly.

Loading next visibility...
Identifier
44784, 2019-076F
Orbit
LEO
Country
Flag of CNCN / PRC
Related business
Manufacturer
SAST
Mission
Spacecraft
Bus & Motor
CZ-6 STAGE 3, YF-85 X 4
Mass
~1,000 kg wet, ~1,000 kg dry
Launch date (UTC)
2019-11-13 (6 years ago)
Launch vehicle
Unknown
Launch site
Taiyaun Space Center, China (TSC)
Object type
Payload
Rocket body
Debris
Shape & HBR
Cyl, 2.0 m
Radar Cross Section
9.057 m², Large (>1 m²)

Expand to show TLE details & history
Last TLE update: 8 hours ago

TLE from 8 hours ago
0 CZ-6 R/B
1 44784U 19076F   25302.83385762  .00000234  00000-0  17238-3 0  9997
2 44784  45.0058 228.7456 0087142 136.6702 224.1033 14.17998240308991
Epoch: 2025-10-29T20:00Z
TLE epoch observation values (Epoch: 2025-10-29T20:00:45.298Z)
Latitude
0.00003°
Longitude
-109.84443°
Altitude
877.507 km
Speed
7.392 km/s
True Right ascension
15h 14m 58s
True Declination
0° 00' 00"
Sunlit
Object was in daylight at epoch
Visualization orbit readout
Latitude
Unknown
Longitude
Unknown
Altitude
Unknown
Speed
Unknown
Apparent Right ascension
Unknown
Apparent Declination
Unknown
Sunlit
N/A
Visualization observer readout
Local Sidereal Time
00:01:02
Azimuth
Unknown
Elevation
Unknown
Doppler factor
Unknown
Orbital elements
Apogee altitude
896.507 km
Perigee altitude
770.816 km
Semi-major axis
7,211.798 km
Eccentricity
0.00871
Inclination
45.0058°
RAAN
228.7456°
Arg. of periapsis
136.6702°
True anomaly
223.41375°
Mean anomaly
224.1033°
Eccentric anomaly
223.75799°
Mean motion
3.54387 °/min
Orbital period
101.58 mins
BSTAR
0.00017238
Loading maneuver chart data...
Computing Atmospheric mass density...
Loading historical data...
Loading historical data...
Loading historical data...
Loading historical data...
Loading historical data...
Loading historical data...
Loading historical data...
Other satellites on launch #76 in the year 2019 (2019-11-13 UTC)

Documentation

Showing up to 5 results
|